ABF2 EFHV-EETN

Flight info

Callsign ABF2
Flight time 0h 30m
Altitude 11000
Route TURFI DCT ROQQA DCT RENKU/N0257F100 DCT ROLIF
Aircraft PC12/L-SDFGRWY/S

Departure

Time 2026-05-07 17:33
Airport Hyvinkää Airfield (EFHV)

Arrival

Time 2026-05-07 18:03
Airport Lennart Meri Tallinn Airport (EETN)
Time Latitude Longitude Altitude Speed Heading
2026-05-07 17:23 60.65415 24.88560 436 ft 0 kts 284°
2026-05-07 17:26 60.65415 24.88543 434 ft 10 kts 264°
2026-05-07 17:27 60.65386 24.88458 436 ft 1 kts 227°
2026-05-07 17:27 60.65409 24.88358 439 ft 16 kts 315°
2026-05-07 17:27 60.65471 24.88323 440 ft 9 kts 45°
2026-05-07 17:27 60.65534 24.88453 443 ft 18 kts 46°
2026-05-07 17:28 60.65645 24.88682 443 ft 28 kts 45°
2026-05-07 17:28 60.65775 24.88948 437 ft 29 kts 46°
2026-05-07 17:28 60.65872 24.89146 446 ft 0 kts 21°
2026-05-07 17:31 60.65928 24.89183 450 ft 13 kts 12°
2026-05-07 17:31 60.65921 24.89114 450 ft 15 kts 224°
2026-05-07 17:32 60.65784 24.88834 437 ft 51 kts 225°
2026-05-07 17:32 60.65384 24.88012 482 ft 107 kts 224°
2026-05-07 17:32 60.64743 24.86822 697 ft 141 kts 224°
2026-05-07 17:32 60.64265 24.85668 745 ft 175 kts 243°
2026-05-07 17:33 60.64508 24.83207 1350 ft 136 kts 330°
2026-05-07 17:33 60.65402 24.83605 1466 ft 148 kts 39°
2026-05-07 17:33 60.66153 24.85187 1295 ft 163 kts 46°
2026-05-07 17:33 60.66908 24.86784 1421 ft 154 kts 43°
2026-05-07 17:34 60.67690 24.88325 1407 ft 157 kts 40°
2026-05-07 17:34 60.68501 24.89823 1399 ft 158 kts 39°
2026-05-07 17:34 60.69332 24.91277 1408 ft 157 kts 40°
2026-05-07 17:34 60.69899 24.93096 1401 ft 160 kts 83°
2026-05-07 17:35 60.69580 24.95205 1407 ft 160 kts 132°
2026-05-07 17:35 60.68615 24.96181 1410 ft 157 kts 174°
2026-05-07 17:35 60.67530 24.96403 1420 ft 158 kts 177°
2026-05-07 17:35 60.66431 24.96626 1423 ft 158 kts 176°
2026-05-07 17:36 60.65331 24.96858 1421 ft 159 kts 176°
2026-05-07 17:36 60.64233 24.97089 1423 ft 159 kts 176°
2026-05-07 17:36 60.63138 24.97323 1421 ft 158 kts 176°
2026-05-07 17:36 60.62044 24.97555 1420 ft 157 kts 176°
2026-05-07 17:37 60.60959 24.97787 1423 ft 158 kts 176°
2026-05-07 17:37 60.59864 24.98016 1419 ft 158 kts 176°
2026-05-07 17:37 60.58776 24.98250 1422 ft 157 kts 175°
2026-05-07 17:37 60.57702 24.98480 1421 ft 158 kts 176°
2026-05-07 17:38 60.56611 24.98710 1416 ft 157 kts 175°
2026-05-07 17:38 60.55523 24.98941 1414 ft 158 kts 176°
2026-05-07 17:38 60.54434 24.99173 1421 ft 158 kts 176°
2026-05-07 17:38 60.53339 24.99403 1453 ft 158 kts 175°
2026-05-07 17:39 60.52252 24.99633 1555 ft 152 kts 175°
2026-05-07 17:39 60.51237 24.99853 1929 ft 143 kts 175°
2026-05-07 17:39 60.50148 25.00085 2345 ft 169 kts 176°
2026-05-07 17:39 60.49001 25.00323 2745 ft 160 kts 175°
2026-05-07 17:40 60.47921 25.00550 3120 ft 152 kts 175°
2026-05-07 17:40 60.46893 25.00773 3490 ft 150 kts 176°
2026-05-07 17:40 60.45858 25.00991 3858 ft 150 kts 176°
2026-05-07 17:40 60.44800 25.01212 4248 ft 156 kts 176°
2026-05-07 17:41 60.43708 25.01273 4637 ft 158 kts 189°
2026-05-07 17:41 60.42619 25.01004 5028 ft 158 kts 189°
2026-05-07 17:41 60.41519 25.00863 5420 ft 159 kts 180°
2026-05-07 17:41 60.40409 25.00919 5812 ft 160 kts 180°
2026-05-07 17:42 60.39292 25.00961 6204 ft 161 kts 180°
2026-05-07 17:42 60.38167 25.00952 6594 ft 162 kts 184°
2026-05-07 17:42 60.37036 25.00840 6968 ft 163 kts 184°
2026-05-07 17:42 60.35900 25.00741 7356 ft 163 kts 184°
2026-05-07 17:43 60.34780 25.00655 7738 ft 163 kts 184°
2026-05-07 17:43 60.33646 25.00580 8129 ft 163 kts 184°
2026-05-07 17:43 60.32509 25.00520 8525 ft 163 kts 184°
2026-05-07 17:43 60.31375 25.00474 8925 ft 163 kts 184°
2026-05-07 17:44 60.30246 25.00427 9336 ft 162 kts 186°
2026-05-07 17:44 60.29120 25.00303 9743 ft 162 kts 187°
2026-05-07 17:44 60.27995 25.00183 10134 ft 162 kts 187°
2026-05-07 17:44 60.26866 25.00082 10508 ft 162 kts 187°
2026-05-07 17:45 60.25737 25.00004 10880 ft 163 kts 187°
2026-05-07 17:45 60.24551 24.99938 11080 ft 183 kts 187°
2026-05-07 17:45 60.23191 24.99837 11097 ft 207 kts 187°
2026-05-07 17:45 60.21685 24.99702 11099 ft 226 kts 187°
2026-05-07 17:46 60.20615 24.99596 11091 ft 239 kts 187°
2026-05-07 17:46 60.18326 24.99346 11097 ft 256 kts 187°
2026-05-07 17:46 60.16539 24.99021 11094 ft 259 kts 193°
2026-05-07 17:46 60.14777 24.98262 11087 ft 259 kts 197°
2026-05-07 17:47 60.13007 24.97535 11084 ft 261 kts 194°
2026-05-07 17:47 60.11211 24.96975 11086 ft 262 kts 192°
2026-05-07 17:47 60.10016 24.96617 11090 ft 262 kts 193°
2026-05-07 17:47 60.08221 24.96042 11097 ft 261 kts 193°
2026-05-07 17:48 60.06428 24.95448 11100 ft 261 kts 193°
2026-05-07 17:48 60.04633 24.94861 11102 ft 261 kts 193°
2026-05-07 17:48 60.02836 24.94278 11100 ft 262 kts 193°
2026-05-07 17:48 60.01041 24.93696 11099 ft 262 kts 193°
2026-05-07 17:49 59.99243 24.93113 11101 ft 261 kts 193°
2026-05-07 17:49 59.97448 24.92532 11110 ft 261 kts 193°
2026-05-07 17:49 59.95651 24.91950 11110 ft 261 kts 193°
2026-05-07 17:49 59.93855 24.91370 11110 ft 262 kts 193°
2026-05-07 17:50 59.92060 24.90790 11100 ft 262 kts 193°
2026-05-07 17:50 59.90265 24.90212 11097 ft 262 kts 193°
2026-05-07 17:50 59.88494 24.89614 11105 ft 260 kts 196°
2026-05-07 17:50 59.86758 24.88671 11098 ft 259 kts 200°
2026-05-07 17:51 59.85022 24.87697 11094 ft 260 kts 200°
2026-05-07 17:51 59.83280 24.86741 11095 ft 260 kts 199°
2026-05-07 17:51 59.81533 24.85784 11095 ft 260 kts 200°
2026-05-07 17:51 59.79788 24.84826 11093 ft 260 kts 200°
2026-05-07 17:52 59.78042 24.83866 11092 ft 260 kts 200°
2026-05-07 17:52 59.76296 24.82909 11092 ft 260 kts 200°
2026-05-07 17:52 59.74551 24.81952 11090 ft 260 kts 199°
2026-05-07 17:52 59.72803 24.80997 11089 ft 260 kts 199°
2026-05-07 17:53 59.71083 24.80045 11086 ft 260 kts 200°
2026-05-07 17:53 59.69339 24.79081 11085 ft 260 kts 200°
2026-05-07 17:53 59.67590 24.78130 11083 ft 260 kts 199°
2026-05-07 17:53 59.65843 24.77182 11085 ft 260 kts 199°
2026-05-07 17:54 59.64082 24.76225 10941 ft 264 kts 199°
2026-05-07 17:54 59.62301 24.75258 10711 ft 267 kts 199°
2026-05-07 17:54 59.60518 24.74292 10405 ft 264 kts 199°
2026-05-07 17:54 59.58753 24.73337 10102 ft 263 kts 199°
2026-05-07 17:55 59.57031 24.72409 9768 ft 242 kts 199°
2026-05-07 17:55 59.55475 24.71575 9267 ft 224 kts 199°
2026-05-07 17:55 59.54006 24.70777 8752 ft 214 kts 198°
2026-05-07 17:55 59.52618 24.70024 8259 ft 206 kts 198°
2026-05-07 17:56 59.51254 24.69287 7763 ft 201 kts 197°
2026-05-07 17:56 59.49941 24.68444 7193 ft 199 kts 208°
2026-05-07 17:56 59.48868 24.66626 6338 ft 211 kts 237°
2026-05-07 17:56 59.48348 24.64015 5852 ft 200 kts 267°
2026-05-07 17:57 59.48535 24.61441 5343 ft 187 kts 298°
2026-05-07 17:57 59.49334 24.59510 4720 ft 182 kts 329°
2026-05-07 17:57 59.50513 24.58793 4132 ft 178 kts
2026-05-07 17:57 59.51651 24.59472 3600 ft 175 kts 32°
2026-05-07 17:58 59.52426 24.61314 3033 ft 178 kts 64°
2026-05-07 17:58 59.52611 24.63702 2554 ft 178 kts 93°
2026-05-07 17:58 59.52175 24.65961 2093 ft 179 kts 122°
2026-05-07 17:58 59.51238 24.67610 1499 ft 187 kts 151°
2026-05-07 17:59 59.49992 24.68096 1185 ft 175 kts 185°
2026-05-07 17:59 59.48871 24.67875 1141 ft 147 kts 193°
2026-05-07 17:59 59.47868 24.67634 1221 ft 158 kts 186°
2026-05-07 17:59 59.46686 24.67302 1240 ft 181 kts 194°
2026-05-07 18:00 59.45435 24.66686 1243 ft 188 kts 196°
2026-05-07 18:00 59.44142 24.66191 1235 ft 191 kts 185°
2026-05-07 18:00 59.42862 24.66611 1229 ft 191 kts 154°
2026-05-07 18:00 59.41838 24.68205 1234 ft 186 kts 125°
2026-05-07 18:01 59.41284 24.70171 1196 ft 147 kts 98°
2026-05-07 18:01 59.41319 24.72002 1182 ft 129 kts 83°
2026-05-07 18:01 59.41332 24.73731 1038 ft 121 kts 86°
2026-05-07 18:01 59.41348 24.75357 801 ft 118 kts 85°
2026-05-07 18:02 59.41334 24.78537 444 ft 118 kts 86°
2026-05-07 18:02 59.41331 24.80121 293 ft 115 kts 85°
2026-05-07 18:02 59.41329 24.81651 166 ft 105 kts 85°
2026-05-07 18:03 59.41325 24.82797 157 ft 44 kts 89°
2026-05-07 18:03 59.41329 24.83206 160 ft 35 kts 84°
2026-05-07 18:03 59.41326 24.83420 161 ft 9 kts 246°
2026-05-07 18:03 59.41330 24.83194 160 ft 25 kts 277°
2026-05-07 18:04 59.41354 24.82753 157 ft 39 kts 287°
2026-05-07 18:04 59.41430 24.82442 158 ft 9 kts 301°
2026-05-07 18:04 59.41482 24.82272 158 ft 21 kts 298°
2026-05-07 18:04 59.41505 24.81947 158 ft 26 kts 269°
2026-05-07 18:05 59.41505 24.81608 158 ft 24 kts 272°
2026-05-07 18:05 59.41507 24.81292 158 ft 15 kts 271°
2026-05-07 18:05 59.41573 24.81182 158 ft 15 kts 356°
2026-05-07 18:05 59.41674 24.81183 158 ft 14 kts
2026-05-07 18:06 59.41748 24.81240 158 ft 12 kts 84°
2026-05-07 18:06 59.41740 24.81395 158 ft 10 kts 120°
2026-05-07 18:06 59.41730 24.81486 158 ft 7 kts 92°
2026-05-07 18:06 59.41742 24.81532 158 ft 3 kts 108°
2026-05-07 18:07 59.41733 24.81523 158 ft 0 kts 276°